TimeMDT,TemperatureF,Dew PointF,Humidity,Sea Level PressureIn,VisibilityMPH,Wind Direction,Wind SpeedMPH,Gust SpeedMPH,PrecipitationIn,Events,Conditions,WindDirDegrees,DateUTC
12:53 AM,66.0,34.0,30,29.80,10.0,ESE,4.6,-,N/A,,Clear,120,2012-10-03 06:53:00
1:53 AM,59.0,36.0,42,29.82,10.0,Calm,Calm,-,N/A,,Clear,0,2012-10-03 07:53:00
2:53 AM,59.0,36.0,42,29.83,10.0,South,3.5,-,N/A,,Clear,170,2012-10-03 08:53:00
3:53 AM,57.9,37.0,46,29.84,10.0,South,6.9,-,N/A,,Clear,170,2012-10-03 09:53:00
4:53 AM,57.9,37.0,46,29.84,10.0,SSE,5.8,-,N/A,,Clear,150,2012-10-03 10:53:00
5:53 AM,57.0,37.9,49,29.86,10.0,SSE,5.8,-,N/A,,Clear,150,2012-10-03 11:53:00
6:53 AM,57.9,39.0,49,29.87,10.0,SSE,3.5,-,N/A,,Scattered Clouds,160,2012-10-03 12:53:00
7:53 AM,55.9,39.0,53,29.91,10.0,South,5.8,-,N/A,,Scattered Clouds,170,2012-10-03 13:53:00
8:53 AM,61.0,39.9,46,29.93,10.0,South,3.5,-,N/A,,Partly Cloudy,170,2012-10-03 14:53:00
9:53 AM,68.0,39.9,36,29.93,10.0,Calm,Calm,-,N/A,,Partly Cloudy,0,2012-10-03 15:53:00
10:53 AM,72.0,44.1,37,29.94,10.0,NW,11.5,-,N/A,,Scattered Clouds,310,2012-10-03 16:53:00
11:53 AM,73.0,32.0,22,29.96,10.0,NNW,13.8,-,N/A,,Scattered Clouds,340,2012-10-03 17:53:00
12:53 PM,73.0,33.1,23,29.96,10.0,NW,9.2,-,N/A,,Partly Cloudy,310,2012-10-03 18:53:00
1:53 PM,73.4,19.4,13,30.09,10.0,WNW,12.7,-,N/A,,Scattered Clouds,290,2012-10-03 19:53:00
2:53 PM,73.0,10.0,9,29.97,10.0,WNW,12.7,-,N/A,,Scattered Clouds,290,2012-10-03 20:53:00
3:53 PM,73.9,21.9,14,29.98,10.0,North,11.5,18.4,N/A,,Partly Cloudy,350,2012-10-03 21:53:00
4:53 PM,72.0,15.1,11,29.98,10.0,NNW,8.1,-,N/A,,Scattered Clouds,340,2012-10-03 22:53:00
5:53 PM,70.0,16.0,13,30.00,10.0,NNW,6.9,-,N/A,,Scattered Clouds,340,2012-10-03 23:53:00
6:53 PM,64.0,23.0,21,30.01,10.0,North,11.5,-,N/A,,Scattered Clouds,350,2012-10-04 00:53:00
7:53 PM,57.0,27.0,32,30.05,10.0,North,6.9,-,N/A,,Scattered Clouds,10,2012-10-04 01:53:00
8:53 PM,59.0,25.0,27,30.04,10.0,NNW,8.1,-,N/A,,Clear,330,2012-10-04 02:53:00
9:53 PM,55.0,30.9,40,30.04,10.0,NW,8.1,-,N/A,,Clear,310,2012-10-04 03:53:00
10:53 PM,52.0,30.0,43,30.04,10.0,North,6.9,-,N/A,,Scattered Clouds,360,2012-10-04 04:53:00
11:53 PM,51.1,28.9,43,30.05,10.0,Calm,Calm,-,N/A,,Scattered Clouds,0,2012-10-04 05:53:00